Main page
METAR-TAF:

METAR-TAF

Airports :

South Big Horn County Airport

Greybull, Wyoming, United States

latitude: 44-30-57N, longitude: 108-04-33W, elevation: 3933 ft

Current weather observation

The report was made 57 minutes ago, at 17:53 UTC
Wind 7 mph from the Southeast
Temperature 28°F
Humidity 59%
Pressure 30.02 in. Hg
Visibility: 10 miles
Clear sky

METAR: KGEY 281753Z AUTO 14006KT 10SM CLR M02/M09 A3002 RMK AO2 SLP214 T10221094 11022 21139 58000

Time: 11:50 (18:50 UTC)


TAF: missing

Weather observations and forecasts of more than 4000 airports (METAR and TAF reports).

The available stations are represented by yellow and red dots on the map.

Hover mouse over dot to see the name of the station.

Then click to see weather observations and forecasts.

To change the map : click on the green buttons with a black cross to zoom in, on the green button with a dash to zoom out, or on the green arrows for adjacent maps.


METAR-TAF: